Wind_Speed
9 8 8 10 8 10 10 3 5 4 6 9 10 9 12 11 11 14 14 15 15 15 14 14 13 13 12 10 10 10 9 9 9 9 10 10 11 11 10 10 10 10 10 11 11 11 10 10 10
9 8 7 8 7 8 6 5 7 4 5 7 8 9 10 10 11 12 13 14 15 15 14 13 12 12 11 9 9 8 8 8 8 8 8 9 9 9 10 9 9 9 9 10 11 11 11 11 10
9 8 7 5 6 2 4 7 7 5 5 7 7 8 9 9 9 10 11 12 13 13 13 12 11 11 10 9 8 8 7 7 7 8 8 8 8 8 8 8 8 8 9 9 10 10 11 11 11
7 8 8 7 4 6 7 6 7 8 8 9 9 8 8 8 8 8 8 9 9 9 10 9 9 9 8 8 8 7 7 7 7 7 7 7 7 7 8 8 8 8 8 9 10 10 11 11 12
5 7 9 8 2 8 10 8 7 9 11 12 12 10 9 9 8 8 7 6 5 5 6 6 5 5 5 5 6 6 6 6 7 7 7 8 8 8 8 8 8 8 8 9 9 10 10 11 11
5 6 8 7 3 10 10 9 10 11 11 13 13 13 12 11 11 9 8 6 4 3 3 3 2 2 3 4 4 5 6 7 7 8 8 9 10 10 10 10 9 9 9 9 9 10 10 10 11
7 7 8 5 4 9 12 10 11 13 12 13 13 13 14 14 14 12 11 9 7 6 4 2 1 2 4 5 6 6 7 7 8 9 9 10 11 12 12 12 11 11 10 10 10 10 10 10 11
12 10 8 6 5 8 12 12 13 14 15 14 14 15 16 16 16 15 14 12 10 9 7 5 4 4 5 6 8 9 9 9 9 10 10 10 11 12 13 13 12 11 11 11 11 10 11 11 11
17 14 10 6 5 10 14 14 15 15 15 14 14 14 15 16 17 17 16 14 12 11 9 8 7 6 7 8 9 11 11 11 11 11 11 11 11 12 12 13 12 12 12 12 12 12 12 12 13
22 18 14 10 13 16 17 16 16 15 15 15 14 14 15 16 17 17 16 16 14 13 12 11 10 10 10 11 12 12 12 12 12 11 12 12 13 13 13 13 13 13 13 13 13 14 14 14 14
27 23 21 15 19 23 20 17 17 17 17 16 15 15 13 15 16 16 16 16 16 15 15 14 14 14 15 15 15 15 14 13 13 13 14 15 15 14 14 14 15 15 15 15 15 15 16 16 16
31 29 27 25 23 23 23 21 19 19 19 21 20 18 15 14 15 16 17 17 17 17 18 17 18 18 18 18 17 17 16 15 15 16 17 17 17 17 17 17 17 17 18 17 17 17 17 17 17
33 32 32 30 29 26 23 23 22 23 25 26 26 21 19 17 17 17 17 18 17 18 18 19 19 20 20 21 20 20 19 18 19 19 20 20 21 21 21 21 21 21 21 20 20 20 19 18 17
35 35 35 34 32 30 28 26 25 26 29 29 27 22 21 21 21 21 21 21 19 19 19 20 20 21 22 22 23 23 22 22 22 22 24 25 25 26 27 27 26 26 25 25 23 22 21 20 20
40 39 38 36 35 32 31 29 27 28 31 31 31 29 27 26 26 25 24 24 23 22 22 22 22 23 24 25 25 25 25 24 25 25 26 28 29 30 31 32 32 31 30 28 27 26 24 23 22
37 38 39 36 36 35 33 31 26 29 33 34 34 32 31 31 31 29 28 28 27 26 26 26 26 26 27 28 29 28 27 27 27 28 29 31 33 34 34 35 36 35 35 33 30 28 26 25 24
32 33 34 33 30 32 32 32 24 27 34 37 37 36 35 35 34 33 32 31 31 30 29 30 31 31 31 32 32 31 31 30 30 30 31 32 34 35 37 37 37 38 37 35 33 30 28 27 26
21 21 24 26 23 27 30 30 26 28 34 37 38 39 39 39 38 37 36 34 34 33 33 34 35 35 35 35 35 35 34 33 33 33 34 34 36 38 38 38 38 38 36 35 34 32 29 28 27
22 24 24 21 19 25 29 30 29 31 34 36 38 37 37 39 39 38 37 37 36 36 36 37 38 38 39 38 38 37 36 35 35 35 36 37 38 40 41 39 40 40 38 38 35 33 30 29 27
28 30 28 24 22 26 32 32 30 31 33 36 40 44 42 39 37 36 37 39 40 39 39 40 41 41 41 41 40 38 37 36 37 38 39 40 41 42 43 43 42 41 41 39 36 34 31 30 29
28 28 28 28 25 27 32 36 35 34 37 41 44 46 48 47 44 41 42 42 43 43 42 42 42 42 42 41 40 39 39 38 38 39 40 42 43 44 45 44 44 43 42 40 38 35 33 31 30
26 22 24 27 27 28 28 31 31 30 37 43 47 48 49 49 47 46 45 43 44 44 44 43 43 42 41 41 40 40 40 40 41 42 43 44 45 46 46 46 46 46 45 43 40 37 34 32 32
26 26 28 30 32 34 32 31 28 24 30 38 42 43 43 45 46 45 44 43 43 44 44 44 43 41 40 40 39 40 40 41 42 44 45 46 47 48 48 48 48 46 45 43 41 38 36 34 32
31 33 36 36 35 37 35 34 34 29 32 40 44 42 41 41 41 40 41 42 42 43 43 43 42 41 40 40 40 41 42 43 45 46 47 48 49 49 49 48 46 45 43 41 40 37 36 35 33
28 31 34 35 35 38 32 31 32 35 41 46 46 45 42 39 35 35 37 39 41 41 41 41 42 42 42 42 43 43 45 46 47 48 49 49 49 49 48 46 45 43 42 40 38 36 36 35 35
22 27 32 34 33 32 28 32 37 42 46 48 50 50 50 49 46 43 42 41 42 42 42 42 43 44 45 45 46 47 48 48 49 49 50 49 48 47 45 43 42 41 40 38 37 36 35 35 34
24 26 29 35 38 39 38 38 41 42 45 49 52 52 52 53 52 50 48 46 46 45 45 45 46 47 48 48 49 49 49 49 49 49 48 47 45 43 41 40 39 37 36 35 34 34 33 32 31
29 30 32 36 40 41 40 37 43 47 47 46 47 52 53 54 52 51 50 49 48 48 48 48 49 50 50 50 50 49 49 48 48 47 44 42 41 39 38 36 35 34 33 33 32 32 31 30 29
31 32 34 37 40 42 42 39 43 46 47 49 48 46 48 49 48 48 47 46 47 47 48 49 49 49 49 49 48 47 46 45 43 41 40 38 38 37 36 35 34 31 30 29 29 29 29 28 28
32 34 36 38 40 42 42 41 41 42 47 50 50 49 46 42 41 41 41 41 42 42 43 44 45 45 45 44 43 42 41 39 38 37 37 37 36 34 33 31 29 28 27 28 28 28 28 27 27
Wind_Direction
159 141 124 117 122 104 99 169 215 186 134 122 119 117 110 106 107 106 102 100 99 99 98 96 94 92 90 87 83 79 75 70 64 59 55 52 52 51 48 42 38 34 32 30 28 27 29 27 22
172 167 149 133 115 100 118 220 234 202 156 150 143 137 126 119 115 110 106 102 99 96 94 92 90 88 85 79 73 67 63 58 54 49 48 47 46 44 42 37 31 26 21 20 20 19 19 20 19
176 180 166 156 83 320 186 225 245 240 212 189 169 152 146 138 128 120 116 109 104 98 93 88 84 80 75 68 60 53 50 48 45 41 39 37 35 32 29 25 22 17 12 8 8 8 9 10 12
173 176 168 147 85 283 262 242 255 255 234 217 198 179 175 168 153 144 133 125 117 108 98 90 82 75 68 60 51 42 35 30 27 24 20 17 13 11 8 6 6 5 2 359 358 357 358 359 1
173 169 169 138 114 267 266 255 248 245 244 231 217 203 199 192 184 172 161 154 143 127 113 98 83 71 60 48 37 28 18 10 5 0 355 352 350 349 347 346 346 346 347 348 346 346 347 348 349
193 176 163 141 176 258 264 245 240 242 248 243 230 219 214 212 209 203 196 194 198 189 148 114 81 42 22 13 5 359 354 349 345 340 335 332 330 330 330 330 330 331 331 332 334 335 336 336 338
222 207 175 168 209 258 265 251 241 239 241 244 240 232 227 225 225 225 223 225 232 241 239 232 281 326 332 336 336 334 332 332 331 328 325 321 319 319 319 319 319 319 319 320 322 324 325 327 328
236 231 212 188 233 260 268 251 237 236 235 237 241 239 237 235 235 237 238 239 245 251 255 260 277 297 311 320 321 318 318 317 318 319 319 317 316 315 315 315 315 313 312 310 310 314 319 320 320
238 236 226 188 246 253 255 252 242 236 237 236 239 241 242 241 239 240 242 244 248 253 257 261 270 284 301 314 317 313 310 309 308 310 313 314 316 317 316 315 315 313 312 308 304 306 311 313 313
238 238 225 212 221 224 237 242 246 242 241 238 236 237 240 241 239 240 243 245 248 253 260 264 271 282 293 303 311 312 308 304 302 304 307 309 312 316 317 317 316 315 313 311 306 304 305 305 305
238 236 227 219 241 235 238 244 245 246 247 245 241 237 240 241 242 243 246 249 252 257 264 268 272 281 290 296 302 304 306 302 300 301 304 306 307 310 314 313 314 313 312 311 307 300 297 297 298
239 237 232 227 240 244 241 239 243 249 249 248 241 234 241 245 246 249 252 253 257 262 266 270 275 281 287 292 295 296 297 298 298 301 304 308 311 312 313 312 312 311 310 309 306 303 296 292 292
239 238 237 236 242 247 244 238 237 243 246 246 243 238 243 247 249 252 256 258 262 265 268 272 276 281 285 288 291 292 294 297 300 303 304 308 312 315 315 313 312 310 308 306 304 301 300 296 294
239 240 240 241 244 248 249 244 239 242 248 251 251 247 249 252 252 254 259 262 266 270 271 274 277 282 285 288 290 293 294 298 300 303 306 308 311 314 315 313 311 308 305 303 301 297 297 293 290
242 244 244 244 248 250 252 250 244 244 250 254 255 253 254 255 256 256 259 264 268 272 275 278 281 284 286 288 290 293 296 297 298 302 306 308 309 311 312 311 310 307 304 300 298 296 294 290 286
244 246 248 248 251 252 253 253 250 250 253 254 252 250 253 256 257 257 259 264 268 272 276 279 282 284 286 288 290 293 295 296 297 299 303 307 309 309 310 311 309 305 302 298 295 292 289 287 285
245 247 249 249 251 254 252 251 244 253 258 257 256 256 256 256 256 257 259 262 266 270 274 278 280 283 285 287 289 291 293 294 295 296 298 302 306 307 307 308 311 309 306 300 293 288 285 285 285
244 254 258 254 245 250 247 245 237 239 249 255 258 257 255 254 254 257 258 260 265 269 273 276 278 280 282 285 286 288 289 290 291 292 294 296 299 302 304 307 311 312 310 307 298 291 286 286 288
227 232 233 241 239 242 250 247 237 237 244 252 256 254 253 257 254 254 257 260 264 268 271 273 274 276 279 282 283 285 286 287 287 288 289 292 296 299 302 304 307 308 309 308 302 294 288 286 287
235 236 233 226 225 232 240 241 232 234 244 250 254 256 259 257 254 257 259 262 266 268 269 270 272 274 277 279 281 282 283 283 283 285 287 290 293 295 297 300 302 305 307 307 303 295 289 286 285
246 248 245 239 234 240 248 251 245 236 240 248 251 255 259 261 264 266 265 265 265 266 268 269 272 274 276 277 278 279 280 281 282 283 286 288 290 292 295 298 299 301 303 303 302 294 288 285 284
248 252 252 245 239 241 249 260 261 248 242 247 252 256 261 263 263 264 265 265 266 267 268 269 271 273 273 274 275 276 278 280 281 283 284 286 289 291 293 295 297 298 299 299 298 293 287 281 279
242 238 239 241 242 241 241 249 254 254 256 257 258 260 261 261 261 261 262 264 265 265 266 268 269 270 270 271 273 274 276 278 280 283 285 287 289 291 292 294 295 296 296 295 294 290 283 277 275
248 247 247 249 252 252 251 250 253 247 249 251 253 259 261 260 260 261 261 262 263 263 264 265 267 268 269 271 272 274 277 279 281 283 285 287 289 291 292 293 293 293 292 291 289 287 279 274 271
257 258 259 258 258 260 263 262 260 254 250 252 257 260 258 258 261 265 265 265 264 264 265 265 266 267 269 271 273 276 278 280 282 284 285 287 289 290 291 291 290 289 288 286 283 283 277 271 269
259 259 260 260 257 256 254 252 248 248 250 251 254 257 260 262 266 267 268 267 266 265 265 265 266 268 270 272 274 276 278 280 281 282 284 286 287 288 289 287 286 285 283 281 278 278 274 269 268
263 265 265 264 261 256 247 247 252 251 252 251 249 251 256 260 264 266 266 265 264 264 265 266 267 268 270 272 274 275 277 278 279 280 282 284 285 286 286 285 284 281 279 277 275 273 271 268 268
264 264 265 266 267 266 263 255 255 256 256 256 251 247 250 256 260 263 264 263 262 262 263 264 266 267 269 271 272 274 275 276 277 278 280 282 283 284 284 283 283 280 276 274 273 270 268 269 269
269 266 263 264 266 268 268 259 252 254 256 259 260 259 254 253 257 261 263 262 261 260 261 262 264 267 268 270 271 272 273 274 275 276 277 280 282 284 284 284 282 278 274 273 272 271 271 270 268
273 268 265 264 264 265 265 261 259 258 259 261 263 263 265 264 263 263 263 261 261 260 260 261 263 265 267 268 269 270 271 272 273 273 275 279 281 282 283 285 284 279 276 275 274 273 274 273 273
Height
5912 5915 5916 5917 5919 5918 5919 5922 5921 5920 5920 5920 5920 5920 5919 5921 5922 5923 5921 5920 5921 5921 5921 5922 5922 5922 5923 5923 5923 5923 5923 5922 5922 5921 5921 5920 5919 5918 5917 5916 5914 5913 5912 5911 5910 5909 5908 5907 5906
5912 5915 5917 5918 5919 5919 5920 5921 5920 5921 5922 5921 5921 5921 5921 5922 5923 5923 5922 5923 5923 5923 5924 5924 5924 5924 5925 5925 5925 5925 5924 5924 5923 5922 5922 5921 5920 5919 5918 5917 5916 5914 5913 5912 5911 5910 5908 5908 5907
5912 5914 5917 5919 5919 5920 5920 5920 5921 5921 5922 5922 5922 5923 5923 5923 5924 5924 5924 5924 5925 5925 5925 5926 5926 5926 5926 5927 5927 5926 5926 5925 5924 5923 5922 5922 5921 5920 5919 5918 5916 5915 5914 5913 5912 5911 5909 5908 5907
5912 5915 5917 5920 5921 5921 5920 5921 5921 5921 5921 5922 5923 5923 5923 5924 5925 5925 5925 5926 5926 5926 5926 5926 5927 5927 5927 5927 5927 5927 5926 5925 5924 5924 5923 5922 5921 5920 5919 5918 5917 5916 5915 5914 5913 5912 5911 5909 5908
5912 5914 5916 5918 5922 5921 5921 5921 5922 5921 5920 5921 5922 5923 5924 5925 5925 5925 5925 5926 5927 5927 5927 5927 5927 5928 5928 5928 5928 5927 5927 5926 5925 5924 5923 5922 5921 5921 5920 5918 5917 5916 5915 5914 5913 5912 5911 5910 5909
5912 5914 5915 5917 5921 5922 5921 5921 5921 5920 5920 5920 5921 5922 5923 5924 5925 5925 5925 5926 5927 5927 5927 5927 5927 5928 5928 5928 5928 5927 5926 5925 5925 5924 5922 5922 5921 5920 5919 5918 5917 5916 5915 5914 5913 5912 5911 5910 5909
5911 5912 5913 5916 5919 5921 5920 5919 5920 5919 5919 5919 5920 5921 5922 5923 5924 5924 5925 5926 5927 5927 5927 5927 5927 5927 5927 5927 5927 5927 5926 5925 5924 5923 5922 5921 5920 5919 5918 5917 5916 5916 5915 5914 5913 5911 5910 5910 5908
5908 5912 5913 5915 5919 5920 5919 5918 5917 5917 5917 5918 5919 5920 5921 5922 5923 5924 5924 5925 5926 5926 5927 5927 5927 5927 5927 5927 5926 5926 5925 5924 5923 5922 5920 5919 5918 5917 5916 5915 5915 5914 5913 5912 5912 5910 5910 5909 5908
5906 5910 5912 5914 5919 5920 5918 5916 5915 5915 5915 5917 5917 5919 5920 5921 5922 5923 5924 5924 5925 5925 5926 5926 5926 5926 5926 5926 5925 5924 5924 5923 5922 5921 5919 5918 5917 5916 5915 5914 5913 5912 5912 5911 5910 5909 5908 5907 5906
5903 5906 5910 5912 5914 5915 5914 5914 5914 5914 5914 5915 5915 5917 5918 5919 5920 5921 5922 5923 5923 5924 5924 5925 5925 5925 5925 5924 5923 5923 5922 5921 5920 5919 5918 5917 5915 5915 5914 5913 5912 5911 5910 5909 5909 5908 5907 5906 5905
5899 5903 5905 5907 5909 5910 5911 5912 5912 5912 5912 5912 5913 5914 5915 5917 5918 5919 5920 5921 5921 5922 5922 5922 5923 5922 5922 5922 5921 5921 5920 5919 5919 5917 5917 5915 5914 5914 5913 5912 5910 5909 5908 5907 5907 5906 5905 5904 5903
5896 5898 5900 5901 5903 5905 5907 5908 5910 5909 5910 5909 5909 5910 5912 5913 5915 5917 5918 5918 5919 5919 5919 5920 5920 5920 5919 5919 5919 5918 5918 5917 5917 5916 5915 5914 5913 5912 5911 5910 5909 5908 5906 5905 5904 5903 5901 5900 5899
5890 5893 5894 5896 5898 5900 5902 5904 5906 5906 5905 5905 5902 5904 5909 5910 5912 5913 5914 5915 5915 5916 5916 5916 5916 5916 5916 5916 5915 5915 5915 5914 5914 5913 5912 5911 5911 5910 5909 5908 5907 5905 5904 5903 5902 5900 5898 5897 5896
5885 5887 5889 5891 5893 5896 5898 5900 5901 5901 5900 5900 5899 5899 5903 5906 5907 5909 5910 5911 5911 5912 5912 5913 5913 5912 5912 5912 5911 5911 5911 5911 5910 5910 5909 5908 5908 5907 5907 5906 5904 5903 5901 5899 5898 5896 5895 5894 5893
5878 5881 5884 5887 5889 5891 5893 5895 5897 5897 5896 5897 5897 5897 5899 5901 5903 5904 5905 5906 5907 5908 5908 5909 5909 5909 5908 5907 5907 5906 5907 5907 5906 5906 5906 5905 5904 5904 5903 5902 5900 5899 5897 5895 5894 5892 5891 5889 5888
5873 5876 5879 5883 5884 5886 5889 5890 5893 5892 5892 5892 5890 5890 5892 5895 5897 5898 5900 5901 5901 5903 5903 5904 5904 5904 5903 5903 5902 5902 5902 5902 5902 5902 5901 5901 5900 5899 5898 5897 5895 5893 5891 5890 5888 5887 5885 5884 5883
5868 5870 5873 5876 5878 5880 5883 5885 5888 5888 5886 5885 5885 5885 5888 5890 5890 5892 5894 5895 5896 5897 5898 5899 5899 5899 5898 5897 5897 5897 5897 5897 5897 5897 5896 5896 5895 5894 5893 5892 5889 5887 5884 5883 5881 5880 5879 5878 5877
5865 5868 5869 5872 5875 5876 5877 5879 5882 5881 5880 5877 5878 5878 5880 5881 5882 5884 5886 5888 5890 5891 5893 5893 5893 5893 5892 5892 5891 5891 5891 5891 5891 5891 5891 5891 5890 5889 5887 5886 5883 5881 5879 5877 5875 5874 5873 5872 5871
5859 5862 5865 5869 5872 5873 5871 5873 5875 5875 5874 5872 5870 5869 5870 5873 5871 5875 5878 5881 5883 5885 5886 5887 5886 5886 5886 5886 5885 5884 5885 5885 5885 5885 5885 5885 5884 5883 5881 5880 5878 5875 5873 5871 5869 5867 5866 5866 5865
5853 5855 5858 5862 5865 5866 5865 5865 5868 5869 5868 5867 5866 5865 5866 5865 5860 5865 5870 5874 5876 5878 5879 5880 5880 5879 5879 5879 5878 5878 5878 5878 5878 5878 5878 5878 5877 5876 5874 5873 5871 5869 5867 5865 5862 5861 5860 5860 5859
5849 5851 5853 5856 5858 5859 5858 5857 5860 5864 5862 5861 5861 5860 5861 5862 5860 5860 5861 5866 5869 5870 5871 5872 5872 5872 5871 5871 5871 5871 5871 5871 5871 5871 5871 5871 5870 5869 5867 5866 5864 5862 5860 5858 5856 5854 5853 5853 5852
5844 5847 5848 5849 5850 5852 5854 5852 5853 5856 5855 5854 5855 5856 5855 5855 5855 5856 5855 5857 5860 5861 5862 5863 5864 5864 5864 5863 5864 5863 5863 5863 5863 5863 5863 5863 5862 5861 5860 5858 5857 5855 5852 5850 5849 5847 5846 5846 5846
5838 5839 5839 5840 5841 5843 5845 5846 5848 5851 5849 5847 5846 5847 5847 5846 5847 5848 5849 5849 5851 5852 5853 5854 5855 5855 5855 5855 5856 5855 5856 5855 5855 5855 5854 5854 5853 5853 5851 5850 5848 5846 5844 5842 5840 5839 5838 5838 5838
5831 5832 5832 5833 5834 5835 5838 5839 5840 5843 5842 5837 5834 5835 5836 5837 5837 5839 5841 5841 5843 5844 5845 5845 5846 5846 5847 5847 5847 5847 5847 5847 5847 5846 5846 5845 5844 5843 5842 5840 5838 5836 5835 5833 5832 5831 5830 5830 5830
5826 5827 5827 5827 5827 5827 5832 5832 5834 5831 5829 5827 5827 5827 5826 5826 5827 5831 5833 5834 5835 5835 5836 5837 5838 5838 5838 5838 5838 5838 5838 5838 5838 5837 5836 5836 5834 5833 5832 5830 5828 5827 5825 5824 5823 5822 5822 5821 5821
5819 5820 5820 5819 5820 5822 5825 5823 5820 5816 5816 5817 5817 5818 5818 5819 5820 5823 5825 5825 5826 5827 5828 5828 5829 5828 5829 5829 5829 5829 5829 5829 5829 5828 5827 5826 5825 5823 5822 5820 5819 5817 5816 5815 5814 5814 5813 5813 5813
5813 5812 5813 5811 5808 5808 5811 5812 5809 5807 5805 5804 5804 5805 5806 5808 5809 5812 5814 5815 5817 5818 5818 5818 5819 5819 5819 5819 5819 5820 5820 5819 5819 5818 5817 5816 5815 5814 5812 5811 5809 5808 5807 5806 5806 5805 5806 5805 5805
5807 5805 5804 5801 5798 5797 5800 5803 5802 5797 5796 5793 5788 5789 5792 5794 5796 5799 5801 5804 5805 5807 5807 5808 5808 5808 5809 5809 5809 5809 5809 5809 5808 5808 5807 5806 5805 5804 5803 5802 5801 5799 5799 5798 5798 5798 5798 5798 5798
5798 5797 5794 5792 5790 5789 5788 5792 5788 5787 5786 5784 5781 5779 5780 5782 5784 5787 5790 5791 5793 5795 5796 5796 5797 5797 5798 5798 5799 5799 5799 5799 5798 5798 5798 5797 5796 5796 5795 5793 5792 5791 5791 5791 5790 5791 5791 5791 5791
5788 5786 5785 5783 5780 5778 5776 5779 5776 5777 5776 5774 5771 5771 5772 5772 5775 5777 5778 5780 5782 5784 5785 5786 5786 5787 5787 5788 5788 5789 5789 5789 5789 5789 5789 5789 5788 5787 5787 5786 5785 5784 5784 5784 5784 5784 5784 5784 5784